Tehachapi, CA

3:02 AM PDT on October 17, 2017 (GMT -0700)
Tehachapi Municipal

Weather History for KTSP - March, 2013

Change the Weather History Date:

Friday, March 15, 2013

  Actual Average Record
Temperature  
Mean Temperature 55 °F -  
Max Temperature 69 °F 57 °F 73 °F (2015)
Min Temperature 41 °F 32 °F 35 °F (2014)
Degree Days  
Heating Degree Days 10    
Growing Degree Days 5 (Base 50)    
Moisture  
Dew Point 45 °F    
Average Humidity 71    
Maximum Humidity 87    
Minimum Humidity 40    
Precipitation  
Precipitation 0.00 in - - ()
Sea Level Pressure  
Sea Level Pressure 30.13 in    
Wind  
Wind Speed 7 mph (WNW)    
Max Wind Speed 21 mph    
Max Gust Speed 28 mph    
Visibility 6 miles    
Events      
Averages and records for this station are not official NWS values.
T = Trace of Precipitation, MM = Missing Value Source: NWS Daily Summary

Daily Weather History Graph

Daily Weather History Graph

Search for Another Location

Airport or City:

Trip Planner

Search our weather history database for the weather conditions in past years. The results will help you decide how hot, cold, wet, or windy it might be!

Date:

Astronomy

Mar. 15, 2013 Rise Set
Actual Time 7:03 AM PDT 7:01 PM PDT
Civil Twilight 6:38 AM PDT 7:26 PM PDT
Nautical Twilight 6:09 AM PDT 7:56 PM PDT
Astronomical Twilight 5:39 AM PDT 8:26 PM PDT
Moon 9:07 AM PDT (3/15) 11:09 PM PDT (3/15)
Length of Visible Light 12h 48m
Length of Day
11h 57m
Waxing Crescent, 16% of the Moon is Illuminated
Mar 15
Waxing Crescent
Mar 19
First Quarter
Mar 27
Full
Apr 2
Last Quarter
Apr 10
New

Hourly Weather History & Observations

Time (PDT) Temp. Windchill Dew Point Humidity Pressure Visibility Wind Dir Wind Speed Gust Speed Precip Events Conditions
12:15 AM 46.4 °F - 41.0 °F 81% 30.20 in 7.0 mi Calm Calm - N/A   Clear
12:35 AM 46.4 °F 45.2 °F 41.0 °F 81% 30.20 in 7.0 mi ESE 3.5 mph - N/A   Clear
12:55 AM 42.8 °F - 37.4 °F 81% 30.20 in 9.0 mi Calm Calm - N/A   Clear
1:15 AM 42.8 °F - 37.4 °F 81% 30.19 in 7.0 mi Calm Calm - N/A   Clear
1:35 AM 42.8 °F 41.1 °F 37.4 °F 81% 30.19 in 9.0 mi SE 3.5 mph - N/A   Clear
1:55 AM 44.6 °F - 37.4 °F 76% 30.18 in 10.0 mi Calm Calm - N/A   Clear
2:15 AM 42.8 °F 41.1 °F 37.4 °F 81% 30.18 in 8.0 mi ENE 3.5 mph - N/A   Clear
2:35 AM 41.0 °F 39.0 °F 37.4 °F 87% 30.17 in 8.0 mi SE 3.5 mph - N/A   Clear
2:55 AM 41.0 °F - 35.6 °F 81% 30.17 in 10.0 mi Calm Calm - N/A   Clear
3:15 AM 42.8 °F - 35.6 °F 76% 30.17 in 10.0 mi Calm Calm - N/A   Clear
3:35 AM 41.0 °F - 37.4 °F 87% 30.16 in 8.0 mi Calm Calm - N/A   Clear
3:55 AM 48.2 °F - 41.0 °F 76% 30.15 in 8.0 mi WNW 6.9 mph - N/A   Clear
4:15 AM 50.0 °F - 42.8 °F 76% 30.16 in 6.0 mi West 6.9 mph - N/A   Haze
4:35 AM 48.2 °F - 42.8 °F 82% 30.15 in 5.0 mi West 6.9 mph - N/A   Haze
4:55 AM 48.2 °F - 42.8 °F 82% 30.14 in 5.0 mi WNW 3.5 mph - N/A   Haze
5:15 AM 50.0 °F - 44.6 °F 82% 30.15 in 5.0 mi West 5.8 mph - N/A   Haze
5:35 AM 48.2 °F - 44.6 °F 87% 30.15 in 5.0 mi NW 3.5 mph - N/A   Haze
5:55 AM 48.2 °F - 42.8 °F 82% 30.15 in 5.0 mi Calm Calm - N/A   Haze
6:15 AM 46.4 °F 44.3 °F 42.8 °F 87% 30.15 in 5.0 mi NNW 4.6 mph - N/A   Clear
6:35 AM 48.2 °F - 42.8 °F 82% 30.15 in 5.0 mi Calm Calm - N/A   Haze
6:55 AM 46.4 °F - 42.8 °F 87% 30.15 in 4.0 mi Calm Calm - N/A   Clear
7:15 AM 44.6 °F - 41.0 °F 87% 30.15 in 2.5 mi Calm Calm - N/A   Clear
7:35 AM 44.6 °F - 41.0 °F 87% 30.16 in 2.0 mi Calm Calm - N/A   Clear
8:55 AM 53.6 °F - 48.2 °F 82% 30.17 in 3.0 mi West 6.9 mph - N/A   Haze
9:15 AM 55.4 °F - 48.2 °F 77% 30.17 in 3.0 mi WNW 9.2 mph - N/A   Haze
9:35 AM 57.2 °F - 48.2 °F 72% 30.17 in 3.0 mi WNW 11.5 mph - N/A   Haze
9:55 AM 59.0 °F - 48.2 °F 67% 30.17 in 3.0 mi WNW 9.2 mph - N/A   Haze
10:15 AM 59.0 °F - 48.2 °F 67% 30.17 in 3.0 mi WNW 10.4 mph - N/A   Haze
10:35 AM 60.8 °F - 48.2 °F 63% 30.17 in 4.0 mi WNW 10.4 mph - N/A   Haze
10:55 AM 62.6 °F - 48.2 °F 59% 30.16 in 4.0 mi NW 9.2 mph - N/A   Haze
11:15 AM 64.4 °F - 48.2 °F 56% 30.15 in 4.0 mi NNW 9.2 mph - N/A   Haze
11:35 AM 66.2 °F - 46.4 °F 49% 30.14 in 5.0 mi NNW 11.5 mph - N/A   Haze
11:55 AM 68.0 °F - 46.4 °F 46% 30.13 in 6.0 mi NW 12.7 mph - N/A   Haze
12:15 PM 68.0 °F - 44.6 °F 43% 30.12 in 7.0 mi NW 13.8 mph - N/A   Clear
12:35 PM 69.8 °F - 44.6 °F 40% 30.11 in 6.0 mi NW 15.0 mph - N/A   Haze
12:55 PM 68.0 °F - 50.0 °F 52% 30.11 in 5.0 mi NW 15.0 mph 19.6 mph N/A   Haze
1:15 PM 66.2 °F - 51.8 °F 60% 30.11 in 5.0 mi NW 19.6 mph 24.2 mph N/A   Haze
1:35 PM 66.2 °F - 51.8 °F 60% 30.10 in 5.0 mi NW 19.6 mph - N/A   Haze
1:55 PM 66.2 °F - 50.0 °F 56% 30.10 in 5.0 mi NW 20.7 mph 26.5 mph N/A   Haze
2:15 PM 64.4 °F - 50.0 °F 59% 30.10 in 5.0 mi NW 20.7 mph 25.3 mph N/A   Haze
2:35 PM 64.4 °F - 50.0 °F 59% 30.10 in 5.0 mi NW 18.4 mph 26.5 mph N/A   Haze
2:55 PM 64.4 °F - 48.2 °F 56% 30.10 in 5.0 mi NW 17.3 mph 27.6 mph N/A   Haze
3:15 PM 66.2 °F - 48.2 °F 52% 30.10 in 5.0 mi NW 17.3 mph 21.9 mph N/A   Haze
3:35 PM 64.4 °F - 48.2 °F 56% 30.10 in 5.0 mi NW 16.1 mph 21.9 mph N/A   Haze
3:55 PM 64.4 °F - 48.2 °F 56% 30.10 in 5.0 mi NW 16.1 mph 21.9 mph N/A   Haze
4:15 PM 64.4 °F - 48.2 °F 56% 30.08 in 5.0 mi NW 13.8 mph - N/A   Haze
4:35 PM 64.4 °F - 48.2 °F 56% 30.09 in 5.0 mi NW 15.0 mph 19.6 mph N/A   Haze
4:55 PM 62.6 °F - 48.2 °F 59% 30.10 in 5.0 mi NW 18.4 mph 25.3 mph N/A   Haze
5:15 PM 62.6 °F - 48.2 °F 59% 30.10 in 5.0 mi NW 15.0 mph 20.7 mph N/A   Haze
5:35 PM 62.6 °F - 48.2 °F 59% 30.09 in 5.0 mi NW 13.8 mph - N/A   Haze
5:55 PM 60.8 °F - 46.4 °F 59% 30.09 in 5.0 mi NW 11.5 mph - N/A   Haze
6:15 PM 59.0 °F - 46.4 °F 63% 30.09 in 5.0 mi NW 16.1 mph 21.9 mph N/A   Haze
6:35 PM 57.2 °F - 46.4 °F 67% 30.10 in 5.0 mi NW 16.1 mph 21.9 mph N/A   Haze
6:55 PM 57.2 °F - 46.4 °F 67% 30.10 in 5.0 mi WNW 12.7 mph - N/A   Haze
7:15 PM 55.4 °F - 46.4 °F 72% 30.10 in 6.0 mi WNW 11.5 mph - N/A   Haze
7:35 PM 55.4 °F - 48.2 °F 77% 30.11 in 6.0 mi WNW 10.4 mph - N/A   Haze
7:55 PM 55.4 °F - 48.2 °F 77% 30.11 in 5.0 mi West 12.7 mph - N/A   Haze
8:15 PM 53.6 °F - 48.2 °F 82% 30.11 in 5.0 mi West 12.7 mph 17.3 mph N/A   Haze
8:35 PM 53.6 °F - 48.2 °F 82% 30.11 in 5.0 mi WNW 10.4 mph - N/A   Haze
8:55 PM 53.6 °F - 46.4 °F 77% 30.11 in 6.0 mi WNW 12.7 mph - N/A   Haze
9:15 PM 53.6 °F - 46.4 °F 77% 30.10 in 5.0 mi WNW 12.7 mph - N/A   Haze
9:35 PM 53.6 °F - 44.6 °F 72% 30.11 in 7.0 mi WNW 11.5 mph - N/A   Clear
9:55 PM 51.8 °F - 44.6 °F 76% 30.11 in 7.0 mi WNW 10.4 mph - N/A   Clear
10:15 PM 50.0 °F - 46.4 °F 87% 30.11 in 6.0 mi West 15.0 mph - N/A   Haze
10:55 PM 51.8 °F - 44.6 °F 76% 30.10 in 8.0 mi WNW 11.5 mph - N/A   Clear
11:15 PM 51.8 °F - 44.6 °F 76% 30.10 in 8.0 mi WNW 11.5 mph 17.3 mph N/A   Clear
11:35 PM 50.0 °F - 42.8 °F 76% 30.09 in 8.0 mi WNW 12.7 mph - N/A   Clear
11:55 PM 50.0 °F - 42.8 °F 76% 30.09 in 8.0 mi WNW 11.5 mph 19.6 mph N/A   Clear